Time,TemperatureF,DewpointF,PressureIn,WindDirection,WindDirectionDegrees,WindSpeedMPH,WindSpeedGustMPH,Humidity,HourlyPrecipIn,Conditions,Clouds,dailyrainin,SolarRadiationWatts/m^2,SoftwareType,DateUTC
2013-02-02 00:02:00,17.0,12.0,-100.00,SW,232,8.0,10.0,81,0.00,,,0.00,0.000000,,2013-02-02 06:02:00,
2013-02-02 00:32:00,18.0,15.0,-100.00,SSW,194,4.0,5.0,88,0.00,,,0.00,0.000000,,2013-02-02 06:32:00,
2013-02-02 00:42:00,18.0,15.0,-100.00,SSW,194,4.0,5.0,88,0.00,,,0.00,0.000000,,2013-02-02 06:42:00,
2013-02-02 00:52:00,18.0,15.0,-100.00,SSW,194,4.0,5.0,88,0.00,,,0.00,0.000000,,2013-02-02 06:52:00,
2013-02-02 01:02:00,18.0,15.0,-100.00,SSW,194,4.0,5.0,88,0.00,,,0.00,0.000000,,2013-02-02 07:02:00,
2013-02-02 01:32:00,18.0,15.0,-100.00,SSW,192,5.0,7.0,89,0.00,,,0.00,0.000000,,2013-02-02 07:32:00,
2013-02-02 01:42:00,18.0,15.0,-100.00,SSW,192,5.0,7.0,89,0.00,,,0.00,0.000000,,2013-02-02 07:42:00,
2013-02-02 01:52:00,18.0,15.0,-100.00,SSW,192,5.0,7.0,89,0.00,,,0.00,0.000000,,2013-02-02 07:52:00,
2013-02-02 02:01:00,18.0,15.0,-100.00,SSW,192,5.0,7.0,89,0.00,,,0.00,0.000000,,2013-02-02 08:01:00,
2013-02-02 02:32:00,19.0,17.0,-100.00,SSW,198,7.0,10.0,90,0.00,,,0.00,0.000000,,2013-02-02 08:32:00,
2013-02-02 02:42:00,19.0,17.0,-100.00,SSW,198,7.0,10.0,90,0.00,,,0.00,0.000000,,2013-02-02 08:42:00,
2013-02-02 02:53:00,19.0,17.0,-100.00,SSW,198,7.0,10.0,90,0.00,,,0.00,0.000000,,2013-02-02 08:53:00,
2013-02-02 03:01:00,19.0,17.0,-100.00,SSW,198,7.0,10.0,90,0.00,,,0.00,0.000000,,2013-02-02 09:01:00,
2013-02-02 03:32:00,20.0,17.0,-100.00,SSW,200,7.0,10.0,87,0.00,,,0.00,0.000000,,2013-02-02 09:32:00,
2013-02-02 03:42:00,20.0,17.0,-100.00,SSW,200,7.0,10.0,87,0.00,,,0.00,0.000000,,2013-02-02 09:42:00,
2013-02-02 03:52:00,20.0,17.0,-100.00,SSW,200,7.0,10.0,87,0.00,,,0.00,0.000000,,2013-02-02 09:52:00,
2013-02-02 04:01:00,20.0,17.0,-100.00,SSW,200,7.0,10.0,87,0.00,,,0.00,0.000000,,2013-02-02 10:01:00,
2013-02-02 04:32:00,21.0,18.0,-100.00,SSW,205,5.0,7.0,88,0.00,,,0.00,0.000000,,2013-02-02 10:32:00,
2013-02-02 04:42:00,21.0,18.0,-100.00,SSW,205,5.0,7.0,88,0.00,,,0.00,0.000000,,2013-02-02 10:42:00,
2013-02-02 04:52:00,21.0,18.0,-100.00,SSW,205,5.0,7.0,88,0.00,,,0.00,0.000000,,2013-02-02 10:52:00,
2013-02-02 05:01:00,21.0,18.0,-100.00,SSW,205,5.0,7.0,88,0.00,,,0.00,0.000000,,2013-02-02 11:01:00,
2013-02-02 05:32:00,22.0,20.0,-100.00,SSW,205,5.0,8.0,91,0.00,,,0.00,0.000000,,2013-02-02 11:32:00,
2013-02-02 05:42:00,22.0,20.0,-100.00,SSW,205,5.0,8.0,91,0.00,,,0.00,0.000000,,2013-02-02 11:42:00,
2013-02-02 05:52:00,22.0,20.0,-100.00,SSW,205,5.0,8.0,91,0.00,,,0.00,0.000000,,2013-02-02 11:52:00,
2013-02-02 06:02:00,22.0,20.0,-100.00,SSW,205,5.0,8.0,91,0.00,,,0.00,0.000000,,2013-02-02 12:02:00,
2013-02-02 06:32:00,23.0,21.0,-100.00,SW,226,8.0,13.0,90,0.00,,,-99.99,0.000000,,2013-02-02 12:32:00,
2013-02-02 06:42:00,23.0,21.0,-100.00,SW,226,8.0,13.0,90,0.00,,,-99.99,0.000000,,2013-02-02 12:42:00,
2013-02-02 06:52:00,23.0,21.0,-100.00,SW,226,8.0,13.0,90,0.00,,,-99.99,0.000000,,2013-02-02 12:52:00,
2013-02-02 07:02:00,23.0,21.0,-100.00,SW,226,8.0,13.0,90,0.00,,,-99.99,0.000000,,2013-02-02 13:02:00,
2013-02-02 07:33:00,23.0,20.0,-100.00,SW,230,7.0,9.0,89,0.00,,,0.00,0.000000,,2013-02-02 13:33:00,
2013-02-02 07:42:00,23.0,20.0,-100.00,SW,230,7.0,9.0,89,0.00,,,0.00,0.000000,,2013-02-02 13:42:00,
2013-02-02 07:52:00,23.0,20.0,-100.00,SW,230,7.0,9.0,89,0.00,,,0.00,0.000000,,2013-02-02 13:52:00,
2013-02-02 08:02:00,23.0,20.0,-100.00,SW,230,7.0,9.0,89,0.00,,,0.00,0.000000,,2013-02-02 14:02:00,
2013-02-02 08:33:00,24.0,21.0,-100.00,WSW,240,6.0,9.0,89,0.00,,,0.00,10.000000,,2013-02-02 14:33:00,
2013-02-02 08:42:00,24.0,21.0,-100.00,WSW,240,6.0,9.0,89,0.00,,,0.00,10.000000,,2013-02-02 14:42:00,
2013-02-02 08:52:00,24.0,21.0,-100.00,WSW,240,6.0,9.0,89,0.00,,,0.00,10.000000,,2013-02-02 14:52:00,
2013-02-02 09:03:00,24.0,21.0,-100.00,WSW,240,6.0,9.0,89,0.00,,,0.00,10.000000,,2013-02-02 15:03:00,
2013-02-02 09:33:00,25.0,22.0,-100.00,West,259,6.0,8.0,87,0.00,,,0.00,48.000000,,2013-02-02 15:33:00,
2013-02-02 09:42:00,25.0,22.0,-100.00,West,259,6.0,8.0,87,0.00,,,0.00,48.000000,,2013-02-02 15:42:00,
2013-02-02 09:52:00,25.0,22.0,-100.00,West,259,6.0,8.0,87,0.00,,,0.00,48.000000,,2013-02-02 15:52:00,
2013-02-02 10:03:00,25.0,22.0,-100.00,West,259,6.0,8.0,87,0.00,,,0.00,48.000000,,2013-02-02 16:03:00,
2013-02-02 10:32:00,26.0,21.0,-100.00,WNW,292,9.0,13.0,82,0.00,,,0.00,98.000000,,2013-02-02 16:32:00,
2013-02-02 10:42:00,26.0,21.0,-100.00,WNW,292,9.0,13.0,82,0.00,,,0.00,98.000000,,2013-02-02 16:42:00,
2013-02-02 10:52:00,26.0,21.0,-100.00,WNW,292,9.0,13.0,82,0.00,,,0.00,98.000000,,2013-02-02 16:52:00,
2013-02-02 11:02:00,26.0,21.0,-100.00,WNW,292,9.0,13.0,82,0.00,,,0.00,98.000000,,2013-02-02 17:02:00,
2013-02-02 11:33:00,26.0,21.0,-100.00,NW,308,8.0,11.0,80,0.00,,,0.00,152.000000,,2013-02-02 17:33:00,
2013-02-02 11:42:00,26.0,21.0,-100.00,NW,308,8.0,11.0,80,0.00,,,0.00,152.000000,,2013-02-02 17:42:00,
2013-02-02 11:52:00,26.0,21.0,-100.00,NW,308,8.0,11.0,80,0.00,,,0.00,152.000000,,2013-02-02 17:52:00,
2013-02-02 12:02:00,26.0,21.0,-100.00,NW,308,8.0,11.0,80,0.00,,,0.00,152.000000,,2013-02-02 18:02:00,
2013-02-02 12:32:00,25.0,20.0,-100.00,NNW,344,9.0,12.0,80,0.00,,,0.00,187.000000,,2013-02-02 18:32:00,
2013-02-02 12:42:00,25.0,20.0,-100.00,NNW,344,9.0,12.0,80,0.00,,,0.00,187.000000,,2013-02-02 18:42:00,
2013-02-02 12:52:00,25.0,20.0,-100.00,NNW,344,9.0,12.0,80,0.00,,,0.00,187.000000,,2013-02-02 18:52:00,
2013-02-02 13:02:00,25.0,20.0,-100.00,NNW,344,9.0,12.0,80,0.00,,,0.00,187.000000,,2013-02-02 19:02:00,
2013-02-02 13:32:00,22.0,17.0,-100.00,NW,323,10.0,13.0,81,0.00,,,0.00,214.000000,,2013-02-02 19:32:00,
2013-02-02 13:42:00,22.0,17.0,-100.00,NW,323,10.0,13.0,81,0.00,,,0.00,214.000000,,2013-02-02 19:42:00,
2013-02-02 13:52:00,22.0,17.0,-100.00,NW,323,10.0,13.0,81,0.00,,,0.00,214.000000,,2013-02-02 19:52:00,
2013-02-02 14:01:00,22.0,17.0,-100.00,NW,323,10.0,13.0,81,0.00,,,0.00,214.000000,,2013-02-02 20:01:00,
2013-02-02 14:32:00,20.0,13.0,-100.00,NNW,335,9.0,12.0,74,0.00,,,0.00,177.000000,,2013-02-02 20:32:00,
2013-02-02 14:42:00,20.0,13.0,-100.00,NNW,335,9.0,12.0,74,0.00,,,0.00,177.000000,,2013-02-02 20:42:00,
2013-02-02 14:52:00,20.0,13.0,-100.00,NNW,335,9.0,12.0,74,0.00,,,0.00,177.000000,,2013-02-02 20:52:00,
2013-02-02 15:02:00,20.0,13.0,-100.00,NNW,335,9.0,12.0,74,0.00,,,0.00,177.000000,,2013-02-02 21:02:00,
2013-02-02 15:32:00,18.0,11.0,-100.00,NW,308,11.0,15.0,73,0.00,,,0.00,166.000000,,2013-02-02 21:32:00,
2013-02-02 15:42:00,18.0,11.0,-100.00,NW,308,11.0,15.0,73,0.00,,,0.00,166.000000,,2013-02-02 21:42:00,
2013-02-02 15:52:00,18.0,11.0,-100.00,NW,308,11.0,15.0,73,0.00,,,0.00,166.000000,,2013-02-02 21:52:00,
2013-02-02 16:02:00,18.0,11.0,-100.00,NW,308,11.0,15.0,73,0.00,,,0.00,166.000000,,2013-02-02 22:02:00,
2013-02-02 16:32:00,16.0,8.0,-100.00,NW,310,11.0,15.0,70,0.00,,,0.00,127.000000,,2013-02-02 22:32:00,
2013-02-02 16:42:00,16.0,8.0,-100.00,NW,310,11.0,15.0,70,0.00,,,0.00,127.000000,,2013-02-02 22:42:00,
2013-02-02 16:52:00,16.0,8.0,-100.00,NW,310,11.0,15.0,70,0.00,,,0.00,127.000000,,2013-02-02 22:52:00,
2013-02-02 17:02:00,16.0,8.0,-100.00,NW,310,11.0,15.0,70,0.00,,,0.00,127.000000,,2013-02-02 23:02:00,
2013-02-02 17:32:00,13.0,4.0,-100.00,NW,317,10.0,13.0,67,0.00,,,0.00,51.000000,,2013-02-02 23:32:00,
2013-02-02 17:42:00,13.0,4.0,-100.00,NW,317,10.0,13.0,67,0.00,,,0.00,51.000000,,2013-02-02 23:42:00,
2013-02-02 17:52:00,13.0,4.0,-100.00,NW,317,10.0,13.0,67,0.00,,,0.00,51.000000,,2013-02-02 23:52:00,
2013-02-02 18:02:00,13.0,4.0,-100.00,NW,317,10.0,13.0,67,0.00,,,0.00,51.000000,,2013-02-03 00:02:00,
2013-02-02 18:32:00,12.0,3.0,-100.00,NW,314,9.0,13.0,66,0.00,,,0.00,1.000000,,2013-02-03 00:32:00,
2013-02-02 18:42:00,12.0,3.0,-100.00,NW,314,9.0,13.0,66,0.00,,,0.00,1.000000,,2013-02-03 00:42:00,
2013-02-02 18:52:00,12.0,3.0,-100.00,NW,314,9.0,13.0,66,0.00,,,0.00,1.000000,,2013-02-03 00:52:00,
2013-02-02 19:02:00,12.0,3.0,-100.00,NW,314,9.0,13.0,66,0.00,,,0.00,1.000000,,2013-02-03 01:02:00,
2013-02-02 19:32:00,12.0,3.0,-100.00,NW,318,9.0,11.0,66,0.00,,,-99.99,0.000000,,2013-02-03 01:32:00,
2013-02-02 19:42:00,12.0,3.0,-100.00,NW,318,9.0,11.0,66,0.00,,,-99.99,0.000000,,2013-02-03 01:42:00,
2013-02-02 19:52:00,12.0,3.0,-100.00,NW,318,9.0,11.0,66,0.00,,,-99.99,0.000000,,2013-02-03 01:52:00,
2013-02-02 20:01:00,12.0,3.0,-100.00,NW,318,9.0,11.0,66,0.00,,,-99.99,0.000000,,2013-02-03 02:01:00,
2013-02-02 20:32:00,11.0,3.0,-100.00,NW,312,6.0,9.0,68,0.00,,,0.00,0.000000,,2013-02-03 02:32:00,
2013-02-02 20:42:00,11.0,3.0,-100.00,NW,312,6.0,9.0,68,0.00,,,0.00,0.000000,,2013-02-03 02:42:00,
2013-02-02 20:52:00,11.0,3.0,-100.00,NW,312,6.0,9.0,68,0.00,,,0.00,0.000000,,2013-02-03 02:52:00,
2013-02-02 21:02:00,11.0,3.0,-100.00,NW,312,6.0,9.0,68,0.00,,,0.00,0.000000,,2013-02-03 03:02:00,
2013-02-02 21:32:00,10.0,2.0,-100.00,NW,310,5.0,8.0,69,0.00,,,0.00,0.000000,,2013-02-03 03:32:00,
2013-02-02 21:42:00,10.0,2.0,-100.00,NW,310,5.0,8.0,69,0.00,,,0.00,0.000000,,2013-02-03 03:42:00,
2013-02-02 21:52:00,10.0,2.0,-100.00,NW,310,5.0,8.0,69,0.00,,,0.00,0.000000,,2013-02-03 03:52:00,
2013-02-02 22:01:00,10.0,2.0,-100.00,NW,310,5.0,8.0,69,0.00,,,0.00,0.000000,,2013-02-03 04:01:00,
2013-02-02 22:32:00,10.0,3.0,-100.00,NW,312,3.0,4.0,71,0.00,,,0.00,0.000000,,2013-02-03 04:32:00,
2013-02-02 22:42:00,10.0,3.0,-100.00,NW,312,3.0,4.0,71,0.00,,,0.00,0.000000,,2013-02-03 04:42:00,
2013-02-02 22:52:00,10.0,3.0,-100.00,NW,312,3.0,4.0,71,0.00,,,0.00,0.000000,,2013-02-03 04:52:00,
2013-02-02 23:03:00,10.0,3.0,-100.00,NW,312,3.0,4.0,71,0.00,,,0.00,0.000000,,2013-02-03 05:03:00,
2013-02-02 23:32:00,7.0,2.0,-100.00,North,10,0.0,1.0,79,0.00,,,0.00,0.000000,,2013-02-03 05:32:00,
2013-02-02 23:42:00,7.0,2.0,-100.00,North,10,0.0,1.0,79,0.00,,,0.00,0.000000,,2013-02-03 05:42:00,
2013-02-02 23:52:00,7.0,2.0,-100.00,North,10,0.0,1.0,79,0.00,,,0.00,0.000000,,2013-02-03 05:52:00,